www.pogodaiklimat.ru

Погода и климат >> Архив погоды >> Австралия >> Северная территория >> Раббит Флат


ПОГОДА в Раббит Флат

  • Прогноз погоды в Раббит Флат
  • Монитор погоды в Раббит Флат

АРХИВ ПОГОДЫ в Раббит Флат

Время (UTC), дата Ветер
(напр.,м/с)
 
Видим.   Явления Облачность Т
(С)
Тd
(С)
f
(%)
Тe
(С)
Тes
(С)
Комфортность P
(гПа)
Po
(гПа)
Тmin
(С)
Tmax
(С)
R
(мм)
R24
(мм)
S
(см)
08 18.06 В 4 н/о н/о +24.6 +0.8 21 +23 +23 комфорт 1017.1 977.6
09 18.06 В 4 н/о н/о +23.5 +1.2 23 +23 +23 комфорт 1017.4 978.0
11 18.06 В 3 н/о н/о +19.6 +1.6 30 +20 +20 1019.2 979.6
12 18.06 В 2 н/о н/о +18.6 +1.2 31 +19 +19 1019.5 980.0
14 18.06 В 4 н/о н/о +15.8 +1.5 38 +15 +15 1019.5 979.9 +27.2
15 18.06 В 4 н/о н/о +16.1 +1.4 37 +16 +16 1019.4 979.9
17 18.06 В 4 н/о н/о +15.8 -0.4 33 +15 +15 1018.7 979.1
18 18.06 В 4 н/о н/о +16.1 -1.0 31 +15 +15 1018.8 979.3
20 18.06 В 3 н/о н/о +14.1 -1.1 35 +13 +13 1019.7 980.1
21 18.06 В 3 н/о н/о +13.6 -0.8 37 +13 +13 1020.1 980.6
23 18.06 В 7 н/о н/о +16.3 -0.4 32 +15 +15 1021.9 982.2
00 19.06 В 8 н/о н/о +17.2 -0.1 31 +16 +16 1021.6 982.0
02 19.06 В 6 н/о н/о +20.7 -0.6 24 +21 +21 комфорт 1021.3 981.6 +12.4
03 19.06 В 6 н/о н/о +21.4 -0.6 23 +21 +21 комфорт 1020.6 981.1
05 19.06 В 4 н/о н/о +23.9 -1.1 19 +23 +23 комфорт 1017.9 978.4
06 19.06 В 6 н/о н/о +23.6 -0.6 20 +22 +22 комфорт 1017.7 978.3
08 19.06 В 4 н/о н/о +22.2 -0.5 22 +21 +21 комфорт 1018.2 978.7
09 19.06 В 4 н/о н/о +21.2 -0.1 24 +21 +21 комфорт 1018.3 978.8
11 19.06 В 3 н/о н/о +16.3 -0.4 32 +16 +16 1019.6 980.0
12 19.06 ЮВ 2 н/о н/о +14.9 -1.2 33 +15 +15 1019.7 980.2
14 19.06 ЮВ 2 н/о н/о +12.7 -0.2 41 +13 +13 1019.9 980.3 +24.5
15 19.06 В 2 н/о н/о +11.7 -1.8 39 +11 +11 1019.7 980.2
17 19.06 В 3 н/о н/о +10.9 0.0 47 +10 +10 1019.8 980.2
18 19.06 В 3 н/о н/о +10.4 +0.2 49 +9 +9 1019.8 980.3
20 19.06 В 3 н/о н/о +11.1 -0.1 46 +10 +10 1020.8 981.2
21 19.06 В 3 н/о н/о +10.4 +0.2 49 +9 +9 1021.0 981.5
23 19.06 В 6 н/о н/о +15.5 -0.7 33 +14 +14 1023.1 983.4
00 20.06 В 7 н/о н/о +16.1 -1.0 31 +15 +15 1023.4 983.8
02 20.06 В 6 н/о н/о +20.0 -1.2 24 +20 +20 1022.3 982.6 +9.4
03 20.06 В 5 н/о н/о +21.4 -0.6 23 +21 +21 комфорт 1021.7 982.1
05 20.06 В 5 н/о н/о +23.2 -2.4 18 +22 +22 комфорт 1019.1 979.5
06 20.06 ЮВ 5 н/о н/о +23.3 -2.3 18 +22 +22 комфорт 1018.8 979.3
08 20.06 В 4 н/о н/о +21.5 -6.2 15 +20 +20 1019.0 979.4
09 20.06 В 4 н/о н/о +20.4 -5.4 17 +20 +20 1019.1 979.6
11 20.06 ЮВ 3 н/о н/о +14.0 -4.7 27 +14 +14 1020.7 981.1
12 20.06 ЮВ 3 н/о н/о +13.6 -4.5 28 +13 +13 1020.8 981.3
14 20.06 ЮВ 3 н/о н/о +11.5 -4.6 32 +11 +11 1020.6 981.0 +24.1
15 20.06 В 2 н/о н/о +11.1 -4.9 32 +10 +10 1020.5 981.0
17 20.06 В 3 н/о н/о +9.3 -5.4 35 +8 +8 1020.6 981.0
18 20.06 ЮВ 3 н/о н/о +7.7 -5.0 40 +6 +6 1020.6 981.1
20 20.06 В 2 н/о н/о +6.3 -4.2 47 +5 +5 1021.5 981.8
21 20.06 В 3 н/о н/о +6.4 -3.8 48 +4 +4 1021.5 981.9
23 20.06 В 8 н/о н/о +13.4 -2.5 33 +11 +11 1023.2 983.5
00 21.06 В 9 н/о н/о +14.5 -2.4 31 +12 +12 1023.3 983.7
02 21.06 В 5 н/о н/о +17.7 -3.7 23 +17 +17 1022.1 982.4 +5.6
03 21.06 В 5 н/о н/о +19.2 -3.6 21 +19 +19 1021.4 981.8
05 21.06 В 5 н/о н/о +21.2 -7.3 14 +20 +20 1018.8 979.2
06 21.06 В 4 н/о н/о +21.7 -7.9 13 +20 +20 1018.3 978.8
08 21.06 ЮВ 4 н/о н/о +20.1 -9.1 13 +20 +20 1018.7 979.1
09 21.06 ЮВ 3 н/о н/о +18.3 -8.7 15 +18 +18 1018.8 979.3
11 21.06 ЮВ 3 н/о н/о +12.3 -7.7 24 +11 +11 1020.0 980.4
12 21.06 ЮВ 3 н/о н/о +11.5 -7.8 25 +11 +11 1020.1 980.6
14 21.06 В 3 н/о н/о +10.1 -10.6 22 +9 +9 1020.3 980.7 +22.0
15 21.06 В 3 н/о н/о +9.5 -10.6 23 +8 +8 1020.2 980.7
17 21.06 В 3 н/о н/о +7.9 -10.4 26 +6 +6 1020.1 980.5
18 21.06 В 2 н/о н/о +7.1 -10.6 27 +6 +6 1020.0 980.5
20 21.06 В 5 н/о н/о +10.0 -7.6 28 +8 +8 1021.2 981.5
21 21.06 В 5 н/о н/о +9.8 -7.8 28 +8 +8 1021.1 981.6
23 21.06 В 7 н/о н/о +11.5 -6.3 28 +9 +9 1022.4 982.7
00 22.06 В 8 н/о н/о +12.7 -6.3 26 +10 +10 1022.2 982.6
02 22.06 СВ 7 н/о н/о +17.1 -9.7 15 +16 +16 1021.3 981.6 +6.6
03 22.06 В 6 н/о н/о +18.3 -8.7 15 +18 +18 1020.4 980.9
05 22.06 В 5 н/о н/о +21.2 -10.4 11 +20 +20 1018.4 978.9
06 22.06 В 4 н/о н/о +21.4 -11.4 10 +20 +20 1018.4 978.9
08 22.06 В 4 н/о н/о +19.9 -12.6 10 +19 +19 1018.4 978.9
09 22.06 В 4 н/о н/о +18.0 -12.9 11 +18 +18 1018.4 978.9
11 22.06 СВ 2 н/о н/о +12.4 -13.5 15 +12 +12 1019.4 979.8
12 22.06 СВ 2 н/о н/о +10.1 -13.8 17 +9 +9 1019.5 980.0
14 22.06 В 3 н/о н/о +7.7 -13.8 20 +6 +6 1019.7 980.1 +22.2
15 22.06 ЮВ 3 н/о н/о +7.3 -13.0 22 +6 +6 1019.4 979.9
17 22.06 В 2 н/о н/о +4.4 -13.4 26 +3 +3 1019.6 980.0
18 22.06 ЮВ 2 н/о н/о +5.4 -11.6 28 +4 +4 1019.8 980.3
20 22.06 В 3 н/о н/о +5.8 -10.8 29 +3 +3 1020.4 980.8
21 22.06 В 4 н/о н/о +6.1 -10.1 30 +3 +3 1020.6 981.1
23 22.06 В 6 н/о н/о +11.9 -8.5 23 +10 +10 1022.5 982.8
00 23.06 В 8 н/о н/о +13.5 -8.4 21 +11 +11 1022.6 983.0
02 23.06 В 6 н/о н/о +17.7 -9.2 15 +17 +17 1021.6 981.9 +4.1
03 23.06 В 6 н/о н/о +19.1 -9.9 13 +18 +18 1020.9 981.4
05 23.06 В 5 н/о н/о +21.7 -12.5 9 +20 +20 1018.7 979.1
06 23.06 В 5 н/о н/о +23.0 -11.5 9 +20 +20 1018.2 978.7
08 23.06 В 4 н/о н/о +21.3 -12.8 9 +20 +20 1018.6 979.0
09 23.06 В 3 н/о н/о +19.4 -13.0 10 +19 +19 1018.9 979.4
11 23.06 В 2 н/о н/о +11.7 -12.5 17 +11 +11 1020.2 980.6
12 23.06 В 2 н/о н/о +10.0 -13.9 17 +9 +9 1020.2 980.7
14 23.06 В 2 н/о н/о +6.5 -14.2 21 +6 +6 1020.5 980.9 +23.3
15 23.06 В 3 н/о н/о +7.5 -11.7 24 +6 +6 1020.3 980.8
17 23.06 В 2 н/о н/о +5.5 -10.7 30 +4 +4 1020.4 980.8
18 23.06 В 3 н/о н/о +6.3 -10.4 29 +4 +4 1020.3 980.8
20 23.06 В 2 н/о н/о +4.3 -10.1 34 +2 +2 1021.2 981.5
21 23.06 В 4 н/о н/о +7.9 -7.4 33 +6 +6 1021.1 981.6
23 23.06 В 5 н/о н/о +13.5 -7.2 23 +12 +12 1023.3 983.6
00 24.06 В 7 н/о н/о +14.8 -7.9 20 +13 +13 1023.3 983.7
02 24.06 СВ 6 н/о н/о +19.4 -9.7 13 +19 +19 1022.9 983.2 +4.3
03 24.06 СВ 6 н/о н/о +20.1 -10.2 12 +19 +19 1022.1 982.5
05 24.06 В 4 н/о н/о +23.2 -14.5 7 +20 +20 1019.9 980.3
08 24.06 В 3 н/о н/о +22.0 -15.3 7 +20 +20 1020.4 980.8
09 24.06 В 3 н/о н/о +20.1 -15.1 8 +20 +20 1020.5 981.0
11 24.06 В 3 н/о н/о +14.5 -15.6 11 +14 +14 1021.9 982.2
12 24.06 В 3 н/о н/о +13.8 -15.1 12 +13 +13 1022.1 982.5
14 24.06 ЮВ 2 н/о н/о +9.2 -15.3 16 +8 +8 1022.2 982.5 +24.2
15 24.06 ЮВ 3 н/о н/о +9.4 -13.7 18 +8 +8 1022.1 982.5
17 24.06 В 1 н/о н/о +5.8 -13.7 23 +6 +6 1021.5 981.8
18 24.06 ЮВ 3 н/о н/о +6.2 -13.4 23 +4 +4 1021.6 982.0
20 24.06 В 2 н/о н/о +7.5 -10.7 26 +6 +6 1022.3 982.6
21 24.06 В 2 н/о н/о +7.5 -10.7 26 +6 +6 1022.4 982.8
23 24.06 В 4 н/о н/о +14.0 -7.9 21 +13 +13 1024.0 984.2
00 25.06 В 5 н/о н/о +15.7 -7.8 19 +15 +15 1023.8 984.2
03 25.06 В 6 н/о н/о +22.5 -9.4 11 +20 +20 1023.1 983.5
06 25.06 В 5 н/о н/о +25.3 -9.8 9 +22 +22 комфорт 1020.2 980.7

 

Местоположение метеостанции Раббит Флат (Северная территория, Австралия): широта -20.18 долгота 130.02 высота над уровнем моря 339 м.

В архиве по умолчанию представлена погода в Раббит Флат за последнюю неделю. Архивные данные за месяц целиком и за предыдущие месяцы, начиная с января 2011 года, Вы можете получить, выбрав интересующий диапазон дат из раскрывающегося списка и нажав кнопку "Ввод!".


*Определитесь, кто Вы:
робот инопланетянин человек

Внимание! Время в таблицах - всемирное. Для получения местного времени необходимо прибавить поправку, которая равна 9.5 ч.

Смотрите также архив погоды в соседних городах и на ближайших метеорологических станциях:

Погода в Ладжаману (Северная территория, Австралия) (216 км)
Погода в Холс Крик (Западная Австралия, Австралия) (329 км)
Погода в Кинторе (Северная территория, Австралия) (350 км)
Погода в Аэропорту Аргайл (Западная Австралия, Австралия) (428 км)
Погода в Виктория-Ривер (Северная территория, Австралия) (433 км)
Погода в Теннант-Крике (Северная территория, Австралия) (439 км)
Погода на Виноградной ферма (Северная территория, Австралия) (451 км)
Погода в Кунунарре (Западная Австралия, Австралия) (509 км)
Погода в Фицрой-Кроссинге (Западная Австралия, Австралия) (519 км)
Погода на Базе ВВС Delamere Weapons Range (Северная территория, Австралия) (532 км)

Пояснения к столбцам:

Ветер - указаны скорость ветра в м/с - средняя за 10 мин, порывы в срок и между сроками (в фигурных скобках) и направление, откуда дует ветер: С - северный, СВ - северо-восточный, В - восточный, ЮВ - юго-восточный, Ю - южный, ЮЗ - юго-западный, З - западный, СЗ - северо-западный.
Видимость - горизонтальная дальность видимости в метрах или километрах. При видимости от 1 до 10 км при отсутствии осадков обычно наблюдается дымка, при ухудшении видимости до 1 км и менее - туман. В сухую погоду видимость может ухудшаться дымом, пылью или мглою.
Явления - указаны атмосферные явления, наблюдавшиеся в срок или в последний час перед сроком; фигурными скобками обозначены явления, наблюдавшиеся между сроками (за 1-3 часа до срока); квадратными скобками обозначены град или гололедные отложения с указанием их диаметра в мм.
Облачность - указаны через наклонную черту общая и нижняя облачность в баллах и высота нижней границы облаков в метрах; квадратными скобками обозначены формы облаков: Ci - перистые, Cs - перисто-слоистые, Cc - перисто-кучевые, Ac - высококучевые, As - высокослоистые, Sc - слоисто-кучевые, Ns - слоисто-дождевые, Cu - кучевые, Cb - кучево-дождевые. Подробнее классификацию облаков см. в Атласе облаков (PDF).
T - Температура воздуха - температура, измеренная на высоте 2 м над землей.
Td - Температура точки росы - температура, при понижении до которой содержащийся в воздухе водяной пар достигнет насыщения.
f - Относительная влажность воздуха - влажноcть воздуха, измеренная на высоте 2 м над землей.
Te - Эффективная температура - температура, которую ощущает одетый по сезону человек в тени. Характеристика душности погоды. При расчете учитывается влияние влажности воздуха и скорости ветра на теплоощущения человека.
Tes - Эффективная температура на солнце - температура, которую ощущает человек, с поправкой на солнечный нагрев. Характеристика знойности погоды. Зависит от высоты солнца над горизонтом, облачности и скорости ветра. Ночью, в пасмурную погоду, а также при ветре 12 м/с и более поправка равна нулю.
P - Атмосферное давление - приведенное к уровню моря атмосферное давление.
Po - Атмосферное давление - измеренное на уровне метеостанции атмосферное давление.
Tmin - Минимальная температура - минимум температуры воздуха на высоте 2 м над землей.
Tmax - Максимальная температура - максимум температуры воздуха на высоте 2 м над землей.
R - Количество осадков - Количество выпавших осадков за период времени, мм. При наведении курсора мыши на число - период времени, за который выпало указанное количество осадков.
R24 - Количество осадков - Количество выпавших осадков за 24 часа, мм.
S - Снежный покров - Высота снежного покрова, см. При наведении курсора мыши на число - состояние снежного покрова и степень покрытия местности в баллах.